Location: Aetna Mine
(37.6183°N, 107.6045°W)
Time: 00:48:59
(UTC+00:00)

Cosmos 2100 Rocket - Pass Details

Date: 18 September 2020
Orbit: 956 x 1000 km, 82.9° (Epoch: 27 October)

Event Time Altitude Azimuth Distance (km) Brightness Sun altitude
Rises 12:18:43 0° 349° (N) 3,729 7.0 -8.1°
Reaches altitude 10° 12:21:16 10° 347° (NNW) 2,777 6.3 -7.6°
Maximum altitude 12:27:34 64° 267° (W) 1,100 4.1 -6.3°
Drops below altitude 10° 12:33:48 10° 188° (S) 2,753 6.2 -5.1°
Sets 12:36:20 0° 185° (S) 3,695 6.9 -4.6°
